Syracuse, NY

1:14 PM EST on December 11, 2019 (GMT -0500)
Syracuse Hancock International

Weather History for KSYR - October, 2019

Change the Weather History Date:

Wednesday, October 30, 2019

  Actual Average Record
Temperature  
Mean Temperature 58 °F 46 °F  
Max Temperature 62 °F 55 °F 79 °F (1946)
Min Temperature 55 °F 37 °F 19 °F (1928)
Degree Days  
Heating Degree Days 6 19  
Month to date heating degree days 357 433  
Since 1 July heating degree days 432 600  
Cooling Degree Days 0 0  
Month to date cooling degree days 11 0  
Year to date cooling degree days 622 565  
Growing Degree Days 8 (Base 50)    
Moisture  
Dew Point 51 °F    
Average Humidity 77    
Maximum Humidity 83    
Minimum Humidity 70    
Precipitation  
Precipitation 0.01 in 0.10 in 1.50 in (2017)
Month to date precipitation 4.93 3.33  
Year to date precipitation 39.06 31.61  
Snow  
Snow 0.00 in 0.00 in 2.90 in (1988)
Month to date snowfall 0.0 0.3  
Since 1 July snowfall T 0.3  
Since 1 September snowfall T 0.3  
Snow Depth 0.00 in    
Sea Level Pressure  
Sea Level Pressure 30.16 in    
Wind  
Wind Speed 5 mph ()    
Max Wind Speed 13 mph    
Max Gust Speed 16 mph    
Visibility 10.0 miles    
Events Rain    
T = Trace of Precipitation, MM = Missing Value Source: Averaged Metar Reports

Daily Weather History Graph

Daily Weather History Graph

Search for Another Location

Airport or City:

Astronomy

Oct. 30, 2019 Rise Set
Actual Time 7:36 AM EDT 5:59 PM EDT
Civil Twilight 7:06 AM EDT 6:28 PM EDT
Nautical Twilight 6:33 AM EDT 7:02 PM EDT
Astronomical Twilight 6:00 AM EDT 7:35 PM EDT
Moon 10:20 AM EDT (10/30) 8:01 PM EDT (10/30)
Length of Visible Light 11h 21m
Length of Day
10h 22m
Waxing Crescent, 8% of the Moon is Illuminated
Oct 30
Waxing Crescent
Nov 4
First Quarter
Nov 12
Full
Nov 19
Last Quarter
Nov 26
New

Hourly Weather History & Observations

Time (EDT) Temp. Dew Point Humidity Pressure Visibility Wind Dir Wind Speed Gust Speed Precip Events Conditions
12:54 AM 57.9 °F 48.9 °F 72% 30.23 in 10.0 mi SSW 9.2 mph - N/A   Overcast
1:54 AM 57.9 °F 50.0 °F 75% 30.22 in 10.0 mi South 6.9 mph - N/A   Overcast
2:17 AM 57.9 °F 50.0 °F 75% 30.23 in 10.0 mi South 5.8 mph - N/A   Overcast
2:54 AM 57.9 °F 50.0 °F 75% 30.23 in 10.0 mi South 4.6 mph - N/A   Overcast
3:54 AM 57.0 °F 50.0 °F 77% 30.22 in 10.0 mi SSE 5.8 mph - N/A   Overcast
4:54 AM 55.9 °F 50.0 °F 80% 30.21 in 10.0 mi East 4.6 mph - N/A   Overcast
5:54 AM 55.9 °F 50.0 °F 80% 30.23 in 10.0 mi SE 3.5 mph - N/A   Overcast
6:54 AM 55.9 °F 50.0 °F 80% 30.24 in 10.0 mi NNW 4.6 mph - N/A   Overcast
7:54 AM 55.0 °F 50.0 °F 83% 30.25 in 10.0 mi Calm Calm - N/A   Overcast
8:54 AM 57.0 °F 51.1 °F 81% 30.27 in 10.0 mi Calm Calm - N/A   Overcast
9:54 AM 59.0 °F 51.1 °F 75% 30.25 in 10.0 mi Calm Calm - N/A   Overcast
10:54 AM 60.1 °F 52.0 °F 75% 30.25 in 10.0 mi ENE 3.5 mph - N/A   Overcast
11:54 AM 60.1 °F 52.0 °F 75% 30.25 in 10.0 mi Calm Calm - N/A   Overcast
12:54 PM 61.0 °F 51.1 °F 70% 30.23 in 10.0 mi Calm Calm - N/A   Overcast
1:54 PM 61.0 °F 52.0 °F 72% 30.20 in 10.0 mi SE 3.5 mph - N/A   Overcast
2:54 PM 61.0 °F 52.0 °F 72% 30.18 in 10.0 mi ESE 4.6 mph - N/A   Overcast
3:54 PM 61.0 °F 53.1 °F 75% 30.15 in 10.0 mi East 8.1 mph - N/A   Overcast
4:54 PM 61.0 °F 53.1 °F 75% 30.13 in 10.0 mi East 10.4 mph - N/A   Overcast
5:54 PM 61.0 °F 51.1 °F 70% 30.12 in 10.0 mi SE 11.5 mph - N/A   Overcast
6:54 PM 59.0 °F 51.1 °F 75% 30.11 in 10.0 mi South 6.9 mph - N/A   Overcast
7:08 PM 57.9 °F 50.0 °F 75% 30.11 in 10.0 mi SSE 8.1 mph - N/A   Overcast
7:54 PM 55.9 °F 50.0 °F 80% 30.09 in 10.0 mi ESE 4.6 mph - N/A   Overcast
8:54 PM 55.9 °F 50.0 °F 80% 30.05 in 10.0 mi East 5.8 mph - N/A   Overcast
9:41 PM 57.9 °F 51.1 °F 78% 30.04 in 10.0 mi Calm Calm - N/A   Mostly Cloudy
9:54 PM 57.0 °F 51.1 °F 81% 30.03 in 10.0 mi Calm Calm - N/A   Overcast
10:54 PM 57.9 °F 51.1 °F 78% 30.00 in 10.0 mi ENE 5.8 mph - 0.00 in   Light Drizzle
11:23 PM 57.0 °F 52.0 °F 83% 29.98 in 10.0 mi East 9.2 mph - 0.00 in Rain Light Rain
11:54 PM 57.0 °F 52.0 °F 83% 29.97 in 10.0 mi East 5.8 mph - 0.00 in Rain Light Rain